Weather History for Jaipur, India

Change the Weather History Date:

Wednesday, October 10, 2012

  Actual Average Record
Temperature  
Mean Temperature 81 °F -  
Max Temperature 94 °F - - ()
Min Temperature 68 °F - - ()
Cooling Degree Days 16    
Growing Degree Days 31 (Base 50)    
Moisture  
Dew Point 58 °F    
Average Humidity 48    
Maximum Humidity 83    
Minimum Humidity 14    
Precipitation  
Precipitation 0.00 in - - ()
Sea Level Pressure  
Sea Level Pressure 29.88 in    
Wind  
Wind Speed 1 mph ()    
Max Wind Speed 8 mph    
Max Gust Speed -    
Visibility 1.8 miles    
Events      
T = Trace of Precipitation, MM = Missing Value Source: Averaged Metar Reports

Daily Weather History Graph

Daily Weather History Graph

Search for Another Location

Airport:

Trip Planner

Search our weather history database for the weather conditions in past years. The results will help you decide how hot, cold, wet, or windy it might be!

Date:

Astronomy

Oct. 10, 2012 Rise Set
Actual Time 6:23 AM IST 6:03 PM IST
Civil Twilight 6:00 AM IST 6:26 PM IST
Nautical Twilight 5:33 AM IST 6:53 PM IST
Astronomical Twilight 5:06 AM IST 7:20 PM IST
Moon 1:01 AM IST (10/10) 2:23 PM IST (10/10)
Length of Visible Light 12h 26m
Length of Day
11h 39m
Waning Crescent, 31% of the Moon is Illuminated
Oct 10
Waning Crescent
Oct 15
New
Oct 22
First Quarter
Oct 30
Full
Nov 7
Last Quarter

Hourly Weather History & Observations

Time (IST) Temp. Heat Index Dew Point Humidity Pressure Visibility Wind Dir Wind Speed Gust Speed Precip Events Conditions
12:00 AM 78.8 °F - 62.6 °F 57% 29.86 in 1.6 mi Calm Calm - N/A   Haze
1:00 AM 73.4 °F - 62.6 °F 69% 29.86 in 1.6 mi Calm Calm - N/A   Haze
2:00 AM 71.6 °F - 62.6 °F 73% 29.86 in 1.6 mi Calm Calm - N/A   Haze
3:00 AM 71.6 °F - 64.4 °F 78% 29.86 in 1.6 mi Calm Calm - N/A   Haze
4:00 AM 71.6 °F - 64.4 °F 78% 29.86 in 1.6 mi Calm Calm - N/A   Haze
5:00 AM 69.8 °F - 64.4 °F 83% 29.89 in 1.6 mi Calm Calm - N/A   Haze
5:30 AM 73 °F - 62 °F 60% 29.82 in 1 mi Calm Calm - -   Haze
6:00 AM 69.8 °F - 62.6 °F 78% 29.89 in 1.6 mi Calm Calm - N/A   Haze
7:00 AM 71.6 °F - 62.6 °F 73% 29.92 in 1.6 mi Calm Calm - N/A   Haze
7:30 AM 69.8 °F - 62.6 °F 78% 29.92 in 1.6 mi Variable 2.3 mph - N/A   Haze
8:00 AM 77.0 °F - 62.6 °F 61% 29.92 in 1.6 mi East 4.6 mph - N/A   Haze
8:30 AM 80 °F - 54 °F 30% 29.86 in 1 mi East 6.9 mph - -   Haze
8:30 AM 78.8 °F - 57.2 °F 47% 29.95 in 1.6 mi East 6.9 mph - N/A   Haze
10:00 AM 84.2 °F 83.5 °F 57.2 °F 40% 29.95 in 2.5 mi East 8.1 mph - N/A   Haze
11:00 AM 87.8 °F 86.5 °F 57.2 °F 35% 29.95 in 2.5 mi ESE 5.8 mph - N/A   Haze
12:00 PM 89.6 °F 87.3 °F 53.6 °F 29% 29.92 in 2.5 mi Variable 3.5 mph - N/A   Haze
12:30 PM 89.6 °F 87.3 °F 53.6 °F 29% 29.92 in 2.5 mi Variable 5.8 mph - N/A   Haze
1:00 PM 91.4 °F 89.1 °F 53.6 °F 28% 29.89 in 2.5 mi Variable 1.2 mph - N/A   Haze
2:00 PM 91.4 °F 89.1 °F 53.6 °F 28% 29.86 in 2.5 mi Variable 5.8 mph - N/A   Haze
2:30 PM 94 °F - 51 °F 14% 29.77 in 2 mi West 2.3 mph - -   Haze
3:00 PM 93.2 °F - 51.8 °F 24% 29.86 in 2.5 mi Variable 1.2 mph - N/A   Haze
4:00 PM 93.2 °F - 50.0 °F 23% 29.86 in 2.5 mi Variable 1.2 mph - N/A   Haze
5:00 PM 91.4 °F - 50.0 °F 24% 29.86 in 2.5 mi Variable 1.2 mph - N/A   Haze
7:00 PM 82.4 °F 82.0 °F 57.2 °F 42% 29.86 in 1.6 mi Calm Calm - N/A   Haze
8:00 PM 80.6 °F 80.8 °F 57.2 °F 45% 29.89 in 1.6 mi Calm Calm - N/A   Haze
8:30 PM 80 °F - 57 °F 35% 29.82 in 1 mi Calm Calm - -   Haze
9:00 PM 78.8 °F - 57.2 °F 47% 29.89 in 1.6 mi Calm Calm - N/A   Haze
10:00 PM 78.8 °F - 57.2 °F 47% 29.92 in 1.6 mi Calm Calm - N/A   Haze
11:00 PM 77.0 °F - 57.2 °F 50% 29.92 in 1.6 mi Calm Calm - N/A   Haze
11:30 PM 77 °F - 54 °F 34% 29.84 in 1 mi Calm Calm - -   Haze